Location: Holbach
(51.5399°N, 10.6036°E)
Time: 10:18:02
(UTC+00:00)

Cosmos 1092 Rocket - Pass Details

Date: 21 June 2021
Orbit: 955 x 994 km, 82.9° (Epoch: 28 July)

Event Time Altitude Azimuth Distance (km) Brightness Sun altitude
Exits shadow 01:36:12 11° 209° (SSW) 2,581 5.5 -9.2°
Maximum altitude 01:41:56 55° 286° (WNW) 1,140 4.3 -8.8°
Drops below altitude 10° 01:47:59 10° 4° (N) 2,704 7.4 -8.2°
Sets 01:50:35 0° 9° (N) 3,658 8.3 -8.0°
